{"data":{"norad_id":63089,"intl_designator":"2025-037N","name":"STARLINK-32910","alt_names":[],"object_type":"PAYLOAD","status":"ACTIVE","operator":null,"country":"US","launch_date":"2025-02-23","launch_site_code":"AFWTR","launch_vehicle":null,"mission":null,"orbit_class":"UNKNOWN","rcs_meters":null,"size_class":null,"mass_kg":null,"dimensions":null,"purposes":["comms"],"wikipedia_slug":null,"has_3d_model":false,"image_url":null,"decayed_at":null,"tle_current":{"epoch":"2026-09-21T14:53:55.649472Z","epoch_age_seconds":65471,"freshness":"FRESH","line1":"1 63089U 25037N   26264.62078298  .00017653  00000+0  61751-3 0  9999","line2":"2 63089  70.0013 217.9285 0002727 279.7549  80.3318 15.29559326 88011","mean_motion":15.29559326,"eccentricity":0.0002727,"inclination_deg":70.0013,"raan_deg":217.9285,"arg_perigee_deg":279.7549,"mean_anomaly_deg":80.3318,"bstar":0.00061751,"rev_number":8801,"period_min":94.144762842628,"perigee_km":475.25924323423,"apogee_km":478.99810513293,"semimajor_km":6855.2656741836,"source":"CELESTRAK","updated_at":"2026-09-22T09:00:49.759873Z"}}}